Overview Statistics Trail Chart Weather Telemetry Raw packets
 

This is the latest recevied weather packets stored in our database for station/object 9W2CHF-2. If no packets are shown the sender has not sent any weather packets the latest 10 day(s).

<< 1 2 3 4 >>
Time Temp. Humidity Pressure Rain* Wind** Luminosity Snow
1788618712 33.89° C 58% 1013.9 hPa - - - -
1788617812 33.89° C 57% 1013.6 hPa - - - -
1788616911 33.89° C 56% 1013.6 hPa - - - -
1788616011 34.44° C 57% 1013.7 hPa - - - -
1788615110 34.44° C 56% 1013.6 hPa - - - -
1788614210 34.44° C 56% 1013.3 hPa - - - -
1788613310 34.44° C 56% 1013.2 hPa - - - -
1788612432 34.44° C 57% 1013 hPa - - - -
1788611510 34.44° C 55% 1012.8 hPa - - - -
1788610610 34.44° C 56% 1012.7 hPa - - - -
1788609710 34.44° C 57% 1012.4 hPa - - - -
1788608809 34.44° C 56% 1012.3 hPa - - - -
1788607909 34.44° C 56% 1012.2 hPa - - - -
1788607009 34.44° C 55% 1011.9 hPa - - - -
1788606109 34.44° C 56% 1011.8 hPa - - - -
1788605209 34.44° C 55% 1011.4 hPa - - - -
1788604309 35° C 54% 1011.4 hPa - - - -
1788603408 35° C 56% 1011.1 hPa - - - -
1788602508 35° C 56% 1010.8 hPa - - - -
1788601608 35° C 57% 1010.7 hPa - - - -
1788600708 35° C 55% 1010.6 hPa - - - -
1788599808 35° C 53% 1010.3 hPa - - - -
1788598907 35° C 56% 1010.4 hPa - - - -
1788598007 35° C 57% 1010.5 hPa - - - -
1788597107 35° C 57% 1010.6 hPa - - - -

* Rain since midnight (hover to see other rain measurements)
** Current wind speed in m/s (hover to see current wind gust speed)